Time,TemperatureF,DewpointF,PressureIn,WindDirection,WindDirectionDegrees,WindSpeedMPH,WindSpeedGustMPH,Humidity,HourlyPrecipIn,Conditions,Clouds,dailyrainin,SoftwareType,DateUTC
2014-07-31 00:01:00,67.5,65.1,29.97,North,0,0.0,0.0,92,0.00,RA,,0.00,WeatherDisplay:10.37,2014-07-31 04:01:00,
2014-07-31 00:02:00,67.3,64.9,29.97,North,0,0.0,0.0,92,0.00,RA,,0.00,WeatherDisplay:10.37,2014-07-31 04:02:00,
2014-07-31 00:03:00,67.3,65.2,29.97,North,0,0.0,0.0,93,0.00,RA,,0.00,WeatherDisplay:10.37,2014-07-31 04:03:00,
2014-07-31 00:08:00,66.9,64.8,29.97,North,0,0.0,0.0,93,0.00,RA,,0.00,WeatherDisplay:10.37,2014-07-31 04:08:00,
2014-07-31 00:13:00,66.7,64.7,29.97,North,0,0.0,0.0,93,0.00,CLR,,0.00,WeatherDisplay:10.37,2014-07-31 04:13:00,
2014-07-31 00:18:00,66.4,64.6,29.97,North,0,0.0,0.0,94,0.00,CLR,,0.00,WeatherDisplay:10.37,2014-07-31 04:18:00,
2014-07-31 00:23:00,66.0,64.2,29.97,North,0,0.0,0.0,94,0.00,CLR,,0.00,WeatherDisplay:10.37,2014-07-31 04:23:00,
2014-07-31 00:28:00,65.8,64.4,29.97,North,0,0.0,0.0,95,0.00,CLR,,0.00,WeatherDisplay:10.37,2014-07-31 04:28:00,
2014-07-31 00:33:00,65.8,64.7,29.97,North,0,0.0,0.0,96,0.00,CLR,,0.00,WeatherDisplay:10.37,2014-07-31 04:33:00,
2014-07-31 00:38:00,65.5,64.6,29.97,North,0,0.0,0.0,97,0.00,CLR,,0.00,WeatherDisplay:10.37,2014-07-31 04:38:00,
2014-07-31 00:43:00,65.3,64.4,29.97,North,0,0.0,0.0,97,0.00,CLR,,0.00,WeatherDisplay:10.37,2014-07-31 04:43:00,
2014-07-31 00:48:00,65.1,64.5,29.97,North,0,0.0,0.0,98,0.00,CLR,,0.00,WeatherDisplay:10.37,2014-07-31 04:48:00,
2014-07-31 00:53:00,65.1,64.5,29.97,North,0,0.0,0.0,98,0.00,CLR,,0.00,WeatherDisplay:10.37,2014-07-31 04:53:00,
2014-07-31 00:58:00,64.9,64.4,29.97,North,0,0.0,0.0,98,0.00,CLR,,0.00,WeatherDisplay:10.37,2014-07-31 04:58:00,
2014-07-31 01:03:00,64.9,64.7,29.97,North,0,0.0,0.0,99,0.00,CLR,,0.00,WeatherDisplay:10.37,2014-07-31 05:03:00,
2014-07-31 01:08:00,64.9,64.7,29.97,North,0,0.0,0.0,99,0.00,CLR,,0.00,WeatherDisplay:10.37,2014-07-31 05:08:00,
2014-07-31 01:13:00,64.9,64.7,29.97,North,0,0.0,0.0,99,0.00,CLR,,0.00,WeatherDisplay:10.37,2014-07-31 05:13:00,
2014-07-31 01:18:00,64.9,64.7,29.97,North,0,0.0,0.0,99,0.00,CLR,,0.00,WeatherDisplay:10.37,2014-07-31 05:18:00,
2014-07-31 01:23:00,64.9,64.7,29.97,North,0,0.0,0.0,99,0.00,CLR,,0.00,WeatherDisplay:10.37,2014-07-31 05:23:00,
2014-07-31 01:28:00,64.9,64.7,29.97,North,0,0.0,0.0,99,0.00,CLR,,0.00,WeatherDisplay:10.37,2014-07-31 05:28:00,
2014-07-31 01:33:00,64.9,64.9,29.97,North,0,0.0,0.0,100,0.00,CLR,,0.00,WeatherDisplay:10.37,2014-07-31 05:33:00,
2014-07-31 01:38:00,64.9,64.9,29.97,North,0,0.0,0.0,100,0.00,CLR,,0.00,WeatherDisplay:10.37,2014-07-31 05:38:00,
2014-07-31 01:43:00,64.9,64.9,29.97,North,0,0.0,0.0,100,0.00,CLR,,0.00,WeatherDisplay:10.37,2014-07-31 05:43:00,
2014-07-31 01:48:00,64.9,64.9,29.97,North,0,0.0,0.0,100,0.00,CLR,,0.00,WeatherDisplay:10.37,2014-07-31 05:48:00,
2014-07-31 01:53:00,64.6,64.6,29.97,North,0,0.0,0.0,100,0.00,CLR,,0.00,WeatherDisplay:10.37,2014-07-31 05:53:00,
2014-07-31 01:58:00,64.4,64.4,29.97,North,0,0.0,0.0,100,0.00,CLR,,0.00,WeatherDisplay:10.37,2014-07-31 05:58:00,
2014-07-31 02:03:00,64.2,64.2,29.97,North,0,0.0,0.0,100,0.00,CLR,,0.00,WeatherDisplay:10.37,2014-07-31 06:03:00,
2014-07-31 02:08:00,64.0,64.0,29.97,North,0,0.0,0.0,100,0.00,CLR,,0.00,WeatherDisplay:10.37,2014-07-31 06:08:00,
2014-07-31 02:13:00,63.9,63.9,29.97,North,0,0.0,0.0,100,0.00,CLR,,0.00,WeatherDisplay:10.37,2014-07-31 06:13:00,
2014-07-31 02:18:00,63.7,63.7,29.97,North,0,0.0,0.0,100,0.00,CLR,,0.00,WeatherDisplay:10.37,2014-07-31 06:18:00,
2014-07-31 02:23:00,63.7,63.7,29.97,North,0,0.0,0.0,100,0.00,CLR,,0.00,WeatherDisplay:10.37,2014-07-31 06:23:00,
2014-07-31 02:28:00,63.3,63.3,29.97,North,0,0.0,0.0,100,0.00,CLR,,0.00,WeatherDisplay:10.37,2014-07-31 06:28:00,
2014-07-31 02:33:00,63.3,63.3,29.97,North,0,0.0,0.0,100,0.00,CLR,,0.00,WeatherDisplay:10.37,2014-07-31 06:33:00,
2014-07-31 02:38:00,63.3,63.3,29.97,North,0,0.0,0.0,100,0.00,CLR,,0.00,WeatherDisplay:10.37,2014-07-31 06:38:00,
2014-07-31 02:43:00,63.1,63.1,29.97,North,0,0.0,0.0,100,0.00,CLR,,0.00,WeatherDisplay:10.37,2014-07-31 06:43:00,
2014-07-31 02:48:00,63.1,63.1,29.97,North,0,0.0,0.0,100,0.00,CLR,,0.00,WeatherDisplay:10.37,2014-07-31 06:48:00,
2014-07-31 02:53:00,62.8,62.8,29.97,North,0,0.0,0.0,100,0.00,CLR,,0.00,WeatherDisplay:10.37,2014-07-31 06:53:00,
2014-07-31 02:58:00,62.8,62.8,29.97,North,0,0.0,0.0,100,0.00,CLR,,0.00,WeatherDisplay:10.37,2014-07-31 06:58:00,
2014-07-31 03:03:00,62.8,62.8,29.97,North,0,0.0,0.0,100,0.00,CLR,,0.00,WeatherDisplay:10.37,2014-07-31 07:03:00,
2014-07-31 03:08:00,62.6,62.6,29.97,North,0,0.0,0.0,100,0.00,CLR,,0.00,WeatherDisplay:10.37,2014-07-31 07:08:00,
2014-07-31 03:13:00,62.6,62.6,29.97,North,0,0.0,0.0,100,0.00,CLR,,0.00,WeatherDisplay:10.37,2014-07-31 07:13:00,
2014-07-31 03:18:00,62.6,62.6,29.97,North,0,0.0,0.0,100,0.00,CLR,,0.00,WeatherDisplay:10.37,2014-07-31 07:18:00,
2014-07-31 03:23:00,62.4,62.4,29.97,North,0,0.0,0.0,100,0.00,CLR,,0.00,WeatherDisplay:10.37,2014-07-31 07:23:00,
2014-07-31 03:28:00,62.6,62.6,29.97,North,0,0.0,0.0,100,0.00,CLR,,0.00,WeatherDisplay:10.37,2014-07-31 07:28:00,
2014-07-31 03:33:00,62.6,62.6,29.97,North,0,0.0,0.0,100,0.00,CLR,,0.00,WeatherDisplay:10.37,2014-07-31 07:33:00,
2014-07-31 03:38:00,62.8,62.8,29.97,North,0,0.0,0.0,100,0.00,CLR,,0.00,WeatherDisplay:10.37,2014-07-31 07:38:00,
2014-07-31 03:43:00,62.8,62.8,29.97,North,0,0.0,0.0,100,0.00,CLR,,0.00,WeatherDisplay:10.37,2014-07-31 07:43:00,
2014-07-31 03:48:00,62.8,62.8,29.97,North,0,0.0,0.0,100,0.00,CLR,,0.00,WeatherDisplay:10.37,2014-07-31 07:48:00,
2014-07-31 03:53:00,62.8,62.8,29.97,North,0,0.0,0.0,100,0.00,CLR,,0.00,WeatherDisplay:10.37,2014-07-31 07:53:00,
2014-07-31 03:58:00,62.8,62.8,29.97,North,0,0.0,0.0,100,0.00,CLR,,0.00,WeatherDisplay:10.37,2014-07-31 07:58:00,
2014-07-31 04:03:00,62.6,62.6,29.97,North,0,0.0,0.0,100,0.00,CLR,,0.00,WeatherDisplay:10.37,2014-07-31 08:03:00,
2014-07-31 04:08:00,62.4,62.4,29.97,North,0,0.0,0.0,100,0.00,CLR,,0.00,WeatherDisplay:10.37,2014-07-31 08:08:00,
2014-07-31 04:13:00,62.4,62.4,29.97,North,0,0.0,0.0,100,0.00,CLR,,0.00,WeatherDisplay:10.37,2014-07-31 08:13:00,
2014-07-31 04:18:00,62.2,62.2,29.97,North,0,0.0,0.0,100,0.00,CLR,,0.00,WeatherDisplay:10.37,2014-07-31 08:18:00,
2014-07-31 04:23:00,62.2,62.2,29.97,North,0,0.0,0.0,100,0.00,CLR,,0.00,WeatherDisplay:10.37,2014-07-31 08:23:00,
2014-07-31 04:28:00,62.1,62.1,29.97,North,0,0.0,0.0,100,0.00,CLR,,0.00,WeatherDisplay:10.37,2014-07-31 08:28:00,
2014-07-31 04:33:00,61.9,61.9,29.97,North,0,0.0,0.0,100,0.00,CLR,,0.00,WeatherDisplay:10.37,2014-07-31 08:33:00,
2014-07-31 04:38:00,61.9,61.9,29.97,North,0,0.0,0.0,100,0.00,CLR,,0.00,WeatherDisplay:10.37,2014-07-31 08:38:00,
2014-07-31 04:43:00,61.7,61.7,29.97,North,0,0.0,0.0,100,0.00,CLR,,0.00,WeatherDisplay:10.37,2014-07-31 08:43:00,
2014-07-31 04:48:00,61.5,61.5,29.97,North,0,0.0,0.0,100,0.00,CLR,,0.00,WeatherDisplay:10.37,2014-07-31 08:48:00,
2014-07-31 04:53:00,61.5,61.5,29.97,North,0,0.0,0.0,100,0.00,CLR,,0.00,WeatherDisplay:10.37,2014-07-31 08:53:00,
2014-07-31 04:58:00,61.3,61.3,29.97,North,0,0.0,0.0,100,0.00,CLR,,0.00,WeatherDisplay:10.37,2014-07-31 08:58:00,
2014-07-31 05:03:00,61.3,61.3,29.97,North,0,0.0,0.0,100,0.00,CLR,,0.00,WeatherDisplay:10.37,2014-07-31 09:03:00,
2014-07-31 05:08:00,61.2,61.2,29.97,North,0,0.0,0.0,100,0.00,CLR,,0.00,WeatherDisplay:10.37,2014-07-31 09:08:00,
2014-07-31 05:13:00,61.2,61.2,29.97,North,0,0.0,0.0,100,0.00,CLR,,0.00,WeatherDisplay:10.37,2014-07-31 09:13:00,
2014-07-31 05:18:00,61.2,61.2,29.98,North,0,0.0,0.0,100,0.00,CLR,,0.00,WeatherDisplay:10.37,2014-07-31 09:18:00,
2014-07-31 05:23:00,61.0,61.0,29.97,North,0,0.0,0.0,100,0.00,CLR,,0.00,WeatherDisplay:10.37,2014-07-31 09:23:00,
2014-07-31 05:28:00,61.0,61.0,29.97,North,0,0.0,0.0,100,0.00,CLR,,0.00,WeatherDisplay:10.37,2014-07-31 09:28:00,
2014-07-31 05:33:00,60.8,60.8,29.97,North,0,0.0,0.0,100,0.00,CLR,,0.00,WeatherDisplay:10.37,2014-07-31 09:33:00,
2014-07-31 05:38:00,60.8,60.8,29.97,North,0,0.0,0.0,100,0.00,CLR,,0.00,WeatherDisplay:10.37,2014-07-31 09:38:00,
2014-07-31 05:43:00,60.6,60.6,29.97,North,0,0.0,0.0,100,0.00,CLR,,0.00,WeatherDisplay:10.37,2014-07-31 09:43:00,
2014-07-31 05:48:00,60.4,60.4,29.97,North,0,0.0,0.0,100,0.00,CLR,,0.00,WeatherDisplay:10.37,2014-07-31 09:48:00,
2014-07-31 05:53:00,60.4,60.4,29.98,North,0,0.0,0.0,100,0.00,CLR,,0.00,WeatherDisplay:10.37,2014-07-31 09:53:00,
2014-07-31 05:58:00,60.4,60.4,29.97,North,0,0.0,0.0,100,0.00,CLR,,0.00,WeatherDisplay:10.37,2014-07-31 09:58:00,
2014-07-31 06:03:00,60.3,60.3,29.98,North,0,0.0,0.0,100,0.00,CLR,,0.00,WeatherDisplay:10.37,2014-07-31 10:03:00,
2014-07-31 06:08:00,60.1,60.1,29.98,North,0,0.0,0.0,100,0.00,CLR,,0.00,WeatherDisplay:10.37,2014-07-31 10:08:00,
2014-07-31 06:13:00,60.1,60.1,29.98,North,0,0.0,0.0,100,0.00,CLR,,0.00,WeatherDisplay:10.37,2014-07-31 10:13:00,
2014-07-31 06:18:00,59.9,59.9,29.99,North,0,0.0,0.0,100,0.00,CLR,,0.00,WeatherDisplay:10.37,2014-07-31 10:18:00,
2014-07-31 06:23:00,59.9,59.9,29.99,North,0,0.0,0.0,100,0.00,CLR,,0.00,WeatherDisplay:10.37,2014-07-31 10:23:00,
2014-07-31 06:28:00,59.7,59.7,29.99,North,0,0.0,0.0,100,0.00,CLR,,0.00,WeatherDisplay:10.37,2014-07-31 10:28:00,
2014-07-31 06:33:00,59.7,59.7,29.99,North,0,0.0,0.0,100,0.00,CLR,,0.00,WeatherDisplay:10.37,2014-07-31 10:33:00,
2014-07-31 06:38:00,59.7,59.7,29.99,North,0,0.0,0.0,100,0.00,CLR,,0.00,WeatherDisplay:10.37,2014-07-31 10:38:00,
2014-07-31 06:43:00,59.7,59.7,29.99,North,0,0.0,0.0,100,0.00,CLR,,0.00,WeatherDisplay:10.37,2014-07-31 10:43:00,
2014-07-31 06:48:00,59.7,59.7,29.99,North,0,0.0,0.0,100,0.00,CLR,,0.00,WeatherDisplay:10.37,2014-07-31 10:48:00,
2014-07-31 06:53:00,59.7,59.7,29.99,North,0,0.0,0.0,100,0.00,CLR,,0.00,WeatherDisplay:10.37,2014-07-31 10:53:00,
2014-07-31 06:58:00,59.7,59.7,29.99,North,0,0.0,0.0,100,0.00,CLR,,0.00,WeatherDisplay:10.37,2014-07-31 10:58:00,
2014-07-31 07:03:00,59.7,59.7,29.99,North,0,0.0,0.0,100,0.00,CLR,,0.00,WeatherDisplay:10.37,2014-07-31 11:03:00,
2014-07-31 07:08:00,59.7,59.7,29.99,North,0,0.0,0.0,100,0.00,CLR,,0.00,WeatherDisplay:10.37,2014-07-31 11:08:00,
2014-07-31 07:13:00,59.7,59.7,29.99,North,0,0.0,0.0,100,0.00,CLR,,0.00,WeatherDisplay:10.37,2014-07-31 11:13:00,
2014-07-31 07:18:00,59.9,59.9,29.99,North,0,0.0,0.0,100,0.00,CLR,,0.00,WeatherDisplay:10.37,2014-07-31 11:18:00,
2014-07-31 07:23:00,60.1,60.1,29.99,North,0,0.0,0.0,100,0.00,CLR,,0.00,WeatherDisplay:10.37,2014-07-31 11:23:00,
2014-07-31 07:28:00,60.1,60.1,29.99,North,0,0.0,0.0,100,0.00,CLR,,0.00,WeatherDisplay:10.37,2014-07-31 11:28:00,
2014-07-31 07:33:00,60.4,60.4,29.99,North,0,0.0,0.0,100,0.00,CLR,,0.00,WeatherDisplay:10.37,2014-07-31 11:33:00,
2014-07-31 07:38:00,60.6,60.6,29.99,North,0,0.0,0.0,100,0.00,CLR,,0.00,WeatherDisplay:10.37,2014-07-31 11:38:00,
2014-07-31 07:43:00,61.0,60.7,29.99,North,0,0.0,0.0,99,0.00,CLR,,0.00,WeatherDisplay:10.37,2014-07-31 11:43:00,
2014-07-31 07:48:00,61.2,60.9,29.99,North,0,0.0,0.0,99,0.00,CLR,,0.00,WeatherDisplay:10.37,2014-07-31 11:48:00,
2014-07-31 07:53:00,61.5,61.2,29.99,North,0,0.0,0.0,99,0.00,CLR,,0.00,WeatherDisplay:10.37,2014-07-31 11:53:00,
2014-07-31 07:58:00,61.9,61.6,29.99,North,0,0.0,0.0,99,0.00,CLR,,0.00,WeatherDisplay:10.37,2014-07-31 11:58:00,
2014-07-31 08:03:00,62.2,62.0,29.99,North,0,0.0,0.0,99,0.00,CLR,,0.00,WeatherDisplay:10.37,2014-07-31 12:03:00,
2014-07-31 08:08:00,62.6,62.0,29.99,North,0,0.0,0.0,98,0.00,CLR,,0.00,WeatherDisplay:10.37,2014-07-31 12:08:00,
2014-07-31 08:13:00,63.1,62.6,29.99,North,0,0.0,0.0,98,0.00,CLR,,0.00,WeatherDisplay:10.37,2014-07-31 12:13:00,
2014-07-31 08:18:00,63.3,62.7,30.00,North,0,0.0,0.0,98,0.00,CLR,,0.00,WeatherDisplay:10.37,2014-07-31 12:18:00,
2014-07-31 08:23:00,64.0,63.5,29.99,North,0,0.0,0.0,98,0.00,CLR,,0.00,WeatherDisplay:10.37,2014-07-31 12:23:00,
2014-07-31 08:28:00,64.6,63.7,30.00,North,0,0.0,0.0,97,0.00,CLR,,0.00,WeatherDisplay:10.37,2014-07-31 12:28:00,
2014-07-31 08:33:00,65.3,64.7,30.00,North,0,0.0,0.0,98,0.00,CLR,,0.00,WeatherDisplay:10.37,2014-07-31 12:33:00,
2014-07-31 08:38:00,66.0,65.7,30.00,North,0,0.0,0.0,99,0.00,CLR,,0.00,WeatherDisplay:10.37,2014-07-31 12:38:00,
2014-07-31 08:43:00,66.4,66.4,30.00,North,0,0.0,0.0,100,0.00,CLR,,0.00,WeatherDisplay:10.37,2014-07-31 12:43:00,
2014-07-31 08:48:00,66.9,66.6,30.00,North,0,0.0,0.0,99,0.00,CLR,,0.00,WeatherDisplay:10.37,2014-07-31 12:48:00,
2014-07-31 08:53:00,67.3,66.7,30.00,North,0,0.0,0.0,98,0.00,CLR,,0.00,WeatherDisplay:10.37,2014-07-31 12:53:00,
2014-07-31 08:58:00,67.8,66.9,30.00,North,0,0.0,0.0,97,0.00,CLR,,0.00,WeatherDisplay:10.37,2014-07-31 12:58:00,
2014-07-31 09:03:00,68.2,67.0,30.00,North,0,0.0,0.0,96,0.00,CLR,,0.00,WeatherDisplay:10.37,2014-07-31 13:03:00,
2014-07-31 09:08:00,68.7,66.9,30.00,North,0,0.0,0.0,94,0.00,CLR,,0.00,WeatherDisplay:10.37,2014-07-31 13:08:00,
2014-07-31 09:13:00,69.1,66.3,30.00,North,0,0.0,0.0,91,0.00,CLR,,0.00,WeatherDisplay:10.37,2014-07-31 13:13:00,
2014-07-31 09:18:00,69.8,67.1,30.01,North,0,0.0,0.0,91,0.00,CLR,,0.00,WeatherDisplay:10.37,2014-07-31 13:18:00,
2014-07-31 09:23:00,70.9,67.1,30.00,North,0,0.0,0.0,88,0.00,CLR,,0.00,WeatherDisplay:10.37,2014-07-31 13:23:00,
2014-07-31 09:28:00,71.4,66.3,30.00,North,0,0.0,0.0,84,0.00,CLR,,0.00,WeatherDisplay:10.37,2014-07-31 13:28:00,
2014-07-31 09:33:00,72.1,66.3,30.01,North,0,0.0,0.0,82,0.00,CLR,,0.00,WeatherDisplay:10.37,2014-07-31 13:33:00,
2014-07-31 09:38:00,72.7,65.4,30.01,North,0,0.0,0.0,78,0.00,CLR,,0.00,WeatherDisplay:10.37,2014-07-31 13:38:00,
2014-07-31 09:43:00,72.7,65.1,30.01,North,0,0.0,0.0,77,0.00,CLR,,0.00,WeatherDisplay:10.37,2014-07-31 13:43:00,
2014-07-31 09:48:00,72.9,65.6,30.01,North,0,0.0,0.0,78,0.00,CLR,,0.00,WeatherDisplay:10.37,2014-07-31 13:48:00,
2014-07-31 09:53:00,73.9,65.5,30.01,North,0,0.0,0.0,75,0.00,CLR,,0.00,WeatherDisplay:10.37,2014-07-31 13:53:00,
2014-07-31 09:58:00,74.8,64.8,30.01,North,0,0.0,0.0,71,0.00,CLR,,0.00,WeatherDisplay:10.37,2014-07-31 13:58:00,
2014-07-31 10:03:00,75.2,64.7,30.01,North,0,0.0,0.0,70,0.00,CLR,,0.00,WeatherDisplay:10.37,2014-07-31 14:03:00,
2014-07-31 10:08:00,75.6,64.7,30.01,North,0,0.0,0.0,69,0.00,CLR,,0.00,WeatherDisplay:10.37,2014-07-31 14:08:00,
2014-07-31 10:13:00,75.7,64.4,30.01,North,0,0.0,0.0,68,0.00,CLR,,0.00,WeatherDisplay:10.37,2014-07-31 14:13:00,
2014-07-31 10:18:00,75.7,63.6,30.01,North,0,0.0,0.0,66,0.00,CLR,,0.00,WeatherDisplay:10.37,2014-07-31 14:18:00,
2014-07-31 10:23:00,76.1,63.9,30.01,North,0,0.0,0.0,66,0.00,CLR,,0.00,WeatherDisplay:10.37,2014-07-31 14:23:00,
2014-07-31 10:28:00,76.5,64.3,30.01,North,0,0.0,0.0,66,0.00,CLR,,0.00,WeatherDisplay:10.37,2014-07-31 14:28:00,
2014-07-31 10:33:00,76.8,63.3,30.01,North,0,0.0,0.0,63,0.00,CLR,,0.00,WeatherDisplay:10.37,2014-07-31 14:33:00,
2014-07-31 10:38:00,76.8,63.7,30.01,North,0,0.0,0.0,64,0.00,CLR,,0.00,WeatherDisplay:10.37,2014-07-31 14:38:00,
2014-07-31 10:43:00,77.2,64.1,30.01,North,0,0.0,0.0,64,0.00,CLR,,0.00,WeatherDisplay:10.37,2014-07-31 14:43:00,
2014-07-31 10:48:00,77.9,63.4,30.01,North,0,0.0,0.0,61,0.00,CLR,,0.00,WeatherDisplay:10.37,2014-07-31 14:48:00,
2014-07-31 10:53:00,77.4,62.4,30.01,North,0,0.0,0.0,60,0.00,CLR,,0.00,WeatherDisplay:10.37,2014-07-31 14:53:00,
2014-07-31 10:58:00,77.7,63.7,30.01,North,0,0.0,0.0,62,0.00,CLR,,0.00,WeatherDisplay:10.37,2014-07-31 14:58:00,
2014-07-31 11:03:00,78.6,64.0,30.01,North,0,0.0,0.0,61,0.00,CLR,,0.00,WeatherDisplay:10.37,2014-07-31 15:03:00,
2014-07-31 11:08:00,79.0,62.4,30.01,North,0,0.0,0.0,57,0.00,CLR,,0.00,WeatherDisplay:10.37,2014-07-31 15:08:00,
2014-07-31 11:13:00,79.0,62.9,30.01,North,0,0.0,0.0,58,0.00,CLR,,0.00,WeatherDisplay:10.37,2014-07-31 15:13:00,
2014-07-31 11:18:00,79.5,63.4,30.01,North,0,0.0,0.0,58,0.00,CLR,,0.00,WeatherDisplay:10.37,2014-07-31 15:18:00,
2014-07-31 11:23:00,80.2,64.1,30.01,North,0,0.0,0.0,58,0.00,CLR,,0.00,WeatherDisplay:10.37,2014-07-31 15:23:00,
2014-07-31 11:28:00,79.9,62.3,30.01,North,0,0.0,0.0,55,0.00,CLR,,0.00,WeatherDisplay:10.37,2014-07-31 15:28:00,
2014-07-31 11:33:00,79.0,60.9,30.01,North,0,0.0,0.0,54,0.00,CLR,,0.00,WeatherDisplay:10.37,2014-07-31 15:33:00,
2014-07-31 11:38:00,78.4,60.9,30.01,North,0,0.0,0.0,55,0.00,CLR,,0.00,WeatherDisplay:10.37,2014-07-31 15:38:00,
2014-07-31 11:43:00,78.8,61.8,30.01,North,0,0.0,0.0,56,0.00,CLR,,0.00,WeatherDisplay:10.37,2014-07-31 15:43:00,
2014-07-31 11:48:00,78.1,60.1,30.01,North,0,0.0,0.0,54,0.00,CLR,,0.00,WeatherDisplay:10.37,2014-07-31 15:48:00,
2014-07-31 11:53:00,77.9,60.4,30.01,North,0,0.0,0.0,55,0.00,CLR,,0.00,WeatherDisplay:10.37,2014-07-31 15:53:00,
2014-07-31 11:58:00,78.4,60.4,30.01,North,0,0.0,0.0,54,0.00,CLR,,0.00,WeatherDisplay:10.37,2014-07-31 15:58:00,
2014-07-31 12:03:00,78.8,60.7,30.01,North,0,0.0,0.0,54,0.00,CLR,,0.00,WeatherDisplay:10.37,2014-07-31 16:03:00,
2014-07-31 12:08:00,79.9,61.2,30.01,North,0,0.0,0.0,53,0.00,CLR,,0.00,WeatherDisplay:10.37,2014-07-31 16:08:00,
2014-07-31 12:13:00,79.3,60.7,30.01,North,0,0.0,0.0,53,0.00,CLR,,0.00,WeatherDisplay:10.37,2014-07-31 16:13:00,
2014-07-31 12:18:00,79.0,60.9,30.01,North,0,0.0,0.0,54,0.00,CLR,,0.00,WeatherDisplay:10.37,2014-07-31 16:18:00,
2014-07-31 12:23:00,79.9,61.2,30.01,North,0,0.0,0.0,53,0.00,CLR,,0.00,WeatherDisplay:10.37,2014-07-31 16:23:00,
2014-07-31 12:28:00,81.0,62.2,30.01,North,0,0.0,0.0,53,0.00,CLR,,0.00,WeatherDisplay:10.37,2014-07-31 16:28:00,
2014-07-31 12:33:00,81.5,62.7,30.01,North,0,0.0,0.0,53,0.00,CLR,,0.00,WeatherDisplay:10.37,2014-07-31 16:33:00,
2014-07-31 12:38:00,81.1,59.0,30.01,North,0,0.0,0.0,47,0.00,CLR,,0.00,WeatherDisplay:10.37,2014-07-31 16:38:00,
2014-07-31 12:43:00,81.7,61.8,30.01,North,0,0.0,0.0,51,0.00,CLR,,0.00,WeatherDisplay:10.37,2014-07-31 16:43:00,
2014-07-31 12:48:00,81.9,60.8,30.01,North,0,0.0,0.0,49,0.00,CLR,,0.00,WeatherDisplay:10.37,2014-07-31 16:48:00,
2014-07-31 12:53:00,81.7,60.1,30.01,North,0,0.0,0.0,48,0.00,CLR,,0.00,WeatherDisplay:10.37,2014-07-31 16:53:00,
2014-07-31 12:58:00,81.3,58.6,30.01,North,0,0.0,0.0,46,0.00,CLR,,0.00,WeatherDisplay:10.37,2014-07-31 16:58:00,